When you browse on this site, cookies collect data to enhance your experience and personalize the content and advertising you see.
Visit our Privacy Policy to learn more. By continuing to use the site, you agree to this use of cookies and data.
  • In Germany
  • List of Countries
  • For 7 days
  • Water Temperature
  • Satellite Maps
  • Weather Map
  • Weather Widgets
  • user-avatar
    Login

    Hourly Weather San Luis

    Today, 19 March, Tuesday

    Time Temperature Precipitation Wind Pressure Humidity
    00:00 +19°C° 0 mm 5 mps 697 mmHg 63%
    01:00 +17°C° 0 mm 6 mps 697 mmHg 62%
    02:00 +16°C° 0 mm 6 mps 698 mmHg 61%
    03:00 +16°C° 0 mm 6 mps 698 mmHg 59%
    04:00 +15°C° 0 mm 6 mps 698 mmHg 58%
    05:00 +14°C° 0 mm 6 mps 699 mmHg 56%
    06:00 +14°C° 0 mm 7 mps 700 mmHg 51%
    07:00 +14°C° 0 mm 7 mps 700 mmHg 46%
    08:00 +13°C° 0 mm 8 mps 701 mmHg 41%
    09:00 +13°C° 0.1 mm 8 mps 701 mmHg 44%
    10:00 +12°C° 0.1 mm 7 mps 702 mmHg 48%
    11:00 +12°C° 0.1 mm 7 mps 702 mmHg 51%
    12:00 +14°C° 0 mm 7 mps 702 mmHg 53%
    13:00 +14°C° 0 mm 7 mps 702 mmHg 54%
    14:00 +15°C° 0 mm 7 mps 702 mmHg 56%
    15:00 +16°C° 0 mm 7 mps 702 mmHg 56%
    16:00 +16°C° 0 mm 7 mps 702 mmHg 57%
    17:00 +17°C° 0 mm 8 mps 702 mmHg 57%
    18:00 +16°C° 0 mm 7 mps 702 mmHg 63%
    19:00 +14°C° 0 mm 6 mps 702 mmHg 69%
    20:00 +13°C° 0 mm 5 mps 703 mmHg 75%
    21:00 +12°C° 0 mm 5 mps 703 mmHg 72%
    22:00 +12°C° 0 mm 4 mps 704 mmHg 68%
    23:00 +12°C° 0 mm 4 mps 704 mmHg 65%

    Tomorrow, 20 March, Wednesday

    Time Temperature Precipitation Wind Pressure Humidity
    00:00 +11°C° 0 mm 3 mps 704 mmHg 64%
    01:00 +11°C° 0 mm 3 mps 704 mmHg 63%
    02:00 +12°C° 0 mm 2 mps 704 mmHg 62%
    03:00 +11°C° 0 mm 3 mps 704 mmHg 60%
    04:00 +11°C° 0 mm 3 mps 703 mmHg 57%
    05:00 +10°C° 0 mm 3 mps 703 mmHg 54%
    06:00 +12°C° 0 mm 4 mps 704 mmHg 49%
    07:00 +13°C° 0 mm 4 mps 704 mmHg 44%
    08:00 +15°C° 0 mm 5 mps 705 mmHg 39%
    09:00 +17°C° 0 mm 5 mps 705 mmHg 33%
    10:00 +20°C° 0 mm 5 mps 705 mmHg 28%
    11:00 +22°C° 0 mm 5 mps 705 mmHg 23%
    12:00 +22°C° 0 mm 4 mps 705 mmHg 22%
    13:00 +23°C° 0 mm 4 mps 704 mmHg 22%
    14:00 +25°C° 0 mm 3 mps 704 mmHg 21%
    15:00 +25°C° 0 mm 3 mps 703 mmHg 22%
    16:00 +25°C° 0 mm 3 mps 703 mmHg 24%
    17:00 +25°C° 0 mm 3 mps 702 mmHg 25%
    18:00 +21°C° 0 mm 4 mps 702 mmHg 32%
    19:00 +19°C° 0 mm 4 mps 702 mmHg 39%
    20:00 +15°C° 0 mm 4 mps 702 mmHg 46%
    21:00 +15°C° 0 mm 5 mps 702 mmHg 51%
    22:00 +15°C° 0 mm 5 mps 702 mmHg 57%
    23:00 +15°C° 0 mm 6 mps 702 mmHg 62%

    Day after tomorrow, 21 March, Thursday

    Time Temperature Precipitation Wind Pressure Humidity
    00:00 +15°C° 0 mm 7 mps 702 mmHg 62%
    01:00 +15°C° 0 mm 7 mps 701 mmHg 62%
    02:00 +15°C° 0 mm 8 mps 701 mmHg 62%
    03:00 +13°C° 0 mm 8 mps 700 mmHg 60%
    04:00 +13°C° 0 mm 8 mps 700 mmHg 57%
    05:00 +14°C° 0 mm 7 mps 700 mmHg 55%
    06:00 +13°C° 0 mm 8 mps 700 mmHg 52%
    07:00 +15°C° 0 mm 8 mps 700 mmHg 49%
    08:00 +16°C° 0 mm 8 mps 700 mmHg 47%
    09:00 +18°C° 0 mm 9 mps 700 mmHg 44%
    10:00 +21°C° 0 mm 9 mps 701 mmHg 41%
    11:00 +23°C° 0 mm 9 mps 701 mmHg 39%
    12:00 +24°C° 0 mm 8 mps 700 mmHg 38%
    13:00 +24°C° 0 mm 8 mps 699 mmHg 37%
    14:00 +26°C° 0 mm 8 mps 699 mmHg 36%
    15:00 +26°C° 0 mm 7 mps 698 mmHg 37%
    16:00 +26°C° 0 mm 7 mps 697 mmHg 38%
    17:00 +24°C° 0 mm 7 mps 697 mmHg 40%
    18:00 +22°C° 0 mm 6 mps 697 mmHg 46%
    19:00 +20°C° 0 mm 5 mps 697 mmHg 53%
    20:00 +17°C° 0 mm 5 mps 697 mmHg 59%
    21:00 +17°C° 0 mm 6 mps 697 mmHg 59%
    22:00 +17°C° 0 mm 7 mps 698 mmHg 58%
    23:00 +17°C° 0 mm 8 mps 698 mmHg 58%

    22 March, Friday

    Time Temperature Precipitation Wind Pressure Humidity
    00:00 +16°C° 0 mm 7 mps 698 mmHg 58%
    01:00 +16°C° 0 mm 6 mps 699 mmHg 58%
    02:00 +15°C° 0 mm 5 mps 699 mmHg 58%
    03:00 +15°C° 0 mm 5 mps 699 mmHg 60%
    04:00 +14°C° 0 mm 4 mps 699 mmHg 62%
    05:00 +14°C° 0 mm 3 mps 699 mmHg 64%
    06:00 +16°C° 0 mm 3 mps 700 mmHg 60%
    07:00 +17°C° 0 mm 4 mps 700 mmHg 55%
    08:00 +19°C° 0 mm 4 mps 701 mmHg 51%
    09:00 +21°C° 0 mm 4 mps 702 mmHg 45%
    10:00 +23°C° 0 mm 4 mps 702 mmHg 40%
    11:00 +26°C° 0 mm 4 mps 702 mmHg 34%
    12:00 +26°C° 0 mm 3 mps 702 mmHg 32%
    13:00 +27°C° 0 mm 2 mps 701 mmHg 30%
    14:00 +28°C° 0 mm 2 mps 701 mmHg 28%
    15:00 +28°C° 0 mm 2 mps 700 mmHg 28%
    16:00 +28°C° 0 mm 2 mps 700 mmHg 28%
    17:00 +28°C° 0 mm 1 mps 699 mmHg 28%
    18:00 +25°C° 0 mm 2 mps 699 mmHg 36%
    19:00 +23°C° 0 mm 2 mps 699 mmHg 44%
    20:00 +19°C° 0 mm 3 mps 699 mmHg 51%
    21:00 +19°C° 0 mm 3 mps 699 mmHg 51%
    22:00 +19°C° 0 mm 3 mps 700 mmHg 51%
    23:00 +19°C° 0 mm 4 mps 700 mmHg 50%

    23 March, Saturday

    Time Temperature Precipitation Wind Pressure Humidity
    00:00 +19°C° 0 mm 4 mps 699 mmHg 50%
    01:00 +19°C° 0 mm 5 mps 699 mmHg 50%
    02:00 +19°C° 0 mm 6 mps 699 mmHg 50%
    03:00 +19°C° 0 mm 6 mps 699 mmHg 52%
    04:00 +18°C° 0 mm 7 mps 698 mmHg 53%
    05:00 +18°C° 0 mm 7 mps 698 mmHg 55%
    06:00 +20°C° 0 mm 7 mps 699 mmHg 52%
    07:00 +20°C° 0 mm 8 mps 699 mmHg 49%
    08:00 +21°C° 0 mm 8 mps 700 mmHg 46%
    09:00 +24°C° 0 mm 7 mps 700 mmHg 40%
    10:00 +27°C° 0 mm 6 mps 700 mmHg 35%
    11:00 +29°C° 0 mm 5 mps 700 mmHg 29%
    12:00 +30°C° 0 mm 4 mps 700 mmHg 27%
    13:00 +32°C° 0 mm 4 mps 700 mmHg 25%
    14:00 +31°C° 0 mm 3 mps 699 mmHg 23%
    15:00 +31°C° 0 mm 2 mps 699 mmHg 23%
    16:00 +31°C° 0 mm 2 mps 699 mmHg 24%
    17:00 +31°C° 0 mm 2 mps 699 mmHg 24%
    18:00 +28°C° 0 mm 2 mps 699 mmHg 32%
    19:00 +25°C° 0 mm 1 mps 699 mmHg 39%
    20:00 +21°C° 0 mm 1 mps 699 mmHg 47%
    21:00 +21°C° 0 mm 1 mps 699 mmHg 48%
    22:00 +20°C° 0 mm 2 mps 700 mmHg 49%
    23:00 +19°C° 0 mm 2 mps 700 mmHg 50%

    24 March, Sunday

    Time Temperature Precipitation Wind Pressure Humidity
    00:00 +19°C° 0 mm 3 mps 701 mmHg 51%
    01:00 +17°C° 0 mm 5 mps 701 mmHg 52%
    02:00 +17°C° 0 mm 6 mps 702 mmHg 53%
    03:00 +16°C° 0 mm 6 mps 702 mmHg 55%
    04:00 +16°C° 0 mm 7 mps 703 mmHg 57%
    05:00 +15°C° 0 mm 7 mps 703 mmHg 59%
    06:00 +16°C° 0 mm 7 mps 704 mmHg 56%
    07:00 +16°C° 0 mm 8 mps 705 mmHg 53%
    08:00 +16°C° 0 mm 8 mps 705 mmHg 50%
    09:00 +18°C° 0 mm 8 mps 706 mmHg 44%
    10:00 +20°C° 0 mm 8 mps 706 mmHg 38%
    11:00 +22°C° 0 mm 7 mps 706 mmHg 32%
    12:00 +23°C° 0 mm 7 mps 706 mmHg 29%
    13:00 +24°C° 0 mm 7 mps 705 mmHg 27%
    14:00 +26°C° 0 mm 7 mps 705 mmHg 25%
    15:00 +24°C° 0 mm 7 mps 704 mmHg 26%
    16:00 +24°C° 0 mm 7 mps 703 mmHg 27%
    17:00 +23°C° 0 mm 8 mps 702 mmHg 28%
    18:00 +21°C° 0 mm 7 mps 702 mmHg 31%
    19:00 +20°C° 0 mm 7 mps 702 mmHg 34%
    20:00 +17°C° 0 mm 6 mps 702 mmHg 37%
    21:00 +17°C° 0 mm 6 mps 702 mmHg 38%
    22:00 +17°C° 0 mm 6 mps 702 mmHg 39%
    23:00 +16°C° 0 mm 6 mps 702 mmHg 39%
    Show more